Weather History for Capo Bellavista, Italy

Change the Weather History Date:

Monday, November 12, 2012

  Actual Average (LIED) Record (LIED)
Temperature  
Mean Temperature 62 °F -  
Max Temperature 66 °F 62 °F 73 °F (2012)
Min Temperature 59 °F 51 °F 44 °F (1998)
Degree Days  
Heating Degree Days 2    
Growing Degree Days 12 (Base 50)    
Moisture  
Dew Point 56 °F    
Average Humidity 78    
Maximum Humidity 88    
Minimum Humidity 71    
Precipitation  
Precipitation 0.08 in 0.08 in - ()
Sea Level Pressure  
Sea Level Pressure 29.99 in    
Wind  
Wind Speed 8 mph ()    
Max Wind Speed 16 mph    
Max Gust Speed -    
Visibility 3.5 miles    
Events Rain , Thunderstorm    
Averages and records for this station are not official NWS values.
T = Trace of Precipitation, MM = Missing Value Source: Averaged Metar Reports

Daily Weather History Graph

Daily Weather History Graph

Search for Another Location

Airport:

Trip Planner

Search our weather history database for the weather conditions in past years. The results will help you decide how hot, cold, wet, or windy it might be!

Date:

Astronomy

Nov. 12, 2012 Rise Set
Actual Time 7:02 AM CET 5:07 PM CET
Civil Twilight 6:34 AM CET 5:36 PM CET
Nautical Twilight 6:01 AM CET 6:08 PM CET
Astronomical Twilight 5:29 AM CET 6:40 PM CET
Moon 5:08 AM CET (11/12) 4:00 PM CET (11/12)
Length of Visible Light 11h 01m
Length of Day
10h 04m
Waning Crescent, 3% of the Moon is Illuminated
Nov 12
Waning Crescent
Nov 13
New
Nov 20
First Quarter
Nov 28
Full
Dec 6
Last Quarter

Hourly Weather History & Observations

Time (CET) Temp. Dew Point Humidity Pressure Visibility Wind Dir Wind Speed Gust Speed Precip Events Conditions
12:55 AM 60.8 °F 53.6 °F 77% 29.92 in 6.2 mi NNE 12.7 mph - N/A Rain , Thunderstorm Light Thunderstorms and Rain
1:00 AM 60 °F 53 °F 72% 29.91 in 6 mi NNE 12.7 mph - - Rain , Thunderstorm Thunderstorms and Rain
1:55 AM 59.0 °F 53.6 °F 82% 29.92 in 6.2 mi North 4.6 mph - N/A   Mostly Cloudy
2:55 AM 59.0 °F 53.6 °F 82% 29.92 in 6.2 mi North 6.9 mph - N/A   Scattered Clouds
3:55 AM 59.0 °F 53.6 °F 82% 29.92 in 6.2 mi NE 16.1 mph - N/A   Scattered Clouds
4:55 AM 59.0 °F 53.6 °F 82% 29.92 in 6.2 mi NNE 15.0 mph - N/A Rain Light Rain
5:55 AM 59.0 °F 51.8 °F 77% 29.92 in 6.2 mi NNW 8.1 mph - N/A Rain Light Rain
6:55 AM 60.8 °F 53.6 °F 77% 29.92 in 3.7 mi WNW 6.9 mph - N/A Rain Light Rain
7:00 AM 60 °F 53 °F 72% 29.94 in 2 mi WNW 6.9 mph - - Rain Light Rain
7:55 AM 60.8 °F 53.6 °F 77% 29.95 in 3.7 mi NW 3.5 mph - N/A Rain Light Rain
8:55 AM 62.6 °F 55.4 °F 77% 29.98 in 1.6 mi West 3.5 mph - N/A Rain Light Rain
9:55 AM 62.6 °F 55.4 °F 77% 29.98 in 2.5 mi NE 3.5 mph - N/A Rain Light Rain
10:55 AM 62.6 °F 55.4 °F 77% 30.01 in 6.2 mi North 4.6 mph - N/A Rain Light Rain
11:55 AM 64.4 °F 57.2 °F 77% 30.01 in 3.1 mi SSE 3.5 mph - N/A Rain Light Rain
12:55 PM 64.4 °F 57.2 °F 77% 30.01 in 1.9 mi SSE 4.6 mph - N/A Rain Light Rain
1:00 PM 65 °F 58 °F 71% 30.01 in 1 mi SSE 4.6 mph - - Rain Light Rain
1:55 PM 64.4 °F 59.0 °F 83% 30.01 in 1.9 mi SSE 3.5 mph - N/A   Overcast
2:55 PM 66.2 °F 59.0 °F 78% 29.98 in 1.9 mi SSW 11.5 mph - N/A   Overcast
3:55 PM 66.2 °F 57.2 °F 73% 30.01 in 2.5 mi South 9.2 mph - N/A Rain Light Rain
4:55 PM 66.2 °F 59.0 °F 78% 30.01 in 2.5 mi South 9.2 mph - N/A Rain Light Rain
5:55 PM 66.2 °F 59.0 °F 78% 30.01 in 2.5 mi South 12.7 mph - N/A Rain Light Rain
6:55 PM 64.4 °F 59.0 °F 83% 30.04 in 2.5 mi SSW 12.7 mph - N/A Rain Light Rain
7:00 PM 65 °F 58 °F 72% 30.03 in 2 mi SSW 12.7 mph - - Rain Light Rain
7:55 PM 66.2 °F 59.0 °F 78% 30.04 in 2.5 mi SW 10.4 mph - N/A Rain Light Rain
8:55 PM 64.4 °F 59.0 °F 83% 30.06 in 2.5 mi SW 10.4 mph - N/A   Mostly Cloudy
9:55 PM 66.2 °F 60.8 °F 83% 30.06 in 2.5 mi SSW 13.8 mph - N/A   Mostly Cloudy
10:55 PM 64.4 °F 60.8 °F 88% 30.09 in 2.5 mi SSW 10.4 mph - N/A   Mostly Cloudy
11:55 PM 64.4 °F 59.0 °F 83% 30.09 in 2.5 mi SW 10.4 mph - N/A   Mostly Cloudy